 |
 |
|
 |
 |
 |
 |
Al di la della Luna; Beyond the Moon; Astrophotography; Astrofotografia; Danilo Pivato |
|
|
|
|
|
|
|
|
 |
|
|
|
|
|
2014 - 2015 |
Orbital Elements
Epoch 2015 Jan. 18.0 TT = JDT 2457040.5
T 2015 Jan. 30.06921 TT MPCW
q 1.2903577 (2000.0) P Q
z +0.0017090 Peri. 12.39490 -0.12073166 -0.14528986
+/-0.0000001 Node 94.97559 +0.80568070 -0.59223978
e 0.9977948 Incl. 80.30212 +0.57991593 +0.79255467 |
|
|
|
|
|
|
 |
|
|
|
|
|
|
|
|
|
|
2014.12.21 |
2014.12.27 |
2014.12.28 |
2015.01.04 |
2015.01.05 |
|
|
|
|
|
|
|
|
|
|
2015.01.06 |
2015.01.09 |
2015.01.12 |
2015.01.12 |
2015.01.12 |
|
|
|
|
|
|
|
|
|
|
2015.01.12 |
Video of the 2015.02.12 |
2015.02.09 |
2015.02.10 |
2015.02.18 |
|
|
|
|
|
|
|
|
|
|
2015.03.06 |
2015.03.07 |
2015.03.12 |
2015.03.19 |
|
|
|
|
|
|
|
|
|
|
|
|
|
|
|
|
|
|
|
|
|
 |
|
|
|
|
|
|
|
|
|
|
|
|
|
|
Photo: Danilo Pivato © Copyright: - Images & texts 2014 - All rights reserved